Flag for Germany Weather past 2 weeks in Werne, North Rhine-Westphalia, Germany

Now
47 °F

Light rain. Low clouds.


Feels Like: 46 °F
Forecast: 36 / 51 °F
Wind: 3 mph from North

Location: Muenster / Osnabrueck

Current Time: Apr 27, 2015 at 4:04:32 AM

Latest Report: Apr 27, 2015 at 3:00 AM


Visibility: 3 mi

Pressure: 29.67 "Hg

Humidity: 95%

Dew point: 46 °F

Location of WerneLocation

Historic Weather in Werne — Graph

°F

Werne temperature yesterday

Maximum temperature yesterday: 62 °F (at 2:00 PM)
Minimum temperature yesterday: 50 °F (at 11:00 PM)
Average temperature yesterday: 55 °F

Past Weeks' High & Low Weather Summary

 TemperatureHumidityPressure
High73 °F (Apr 15, 4:00 PM)100% (Apr 23, 7:00 AM)30.48 "Hg (Apr 23, 7:00 AM)
Low32 °F (Apr 18, 6:00 AM)29% (Apr 21, 4:00 PM)29.67 "Hg (Apr 27, 3:00 AM)
Average51 °F67%30.15 "Hg
* Reported Apr 12 3:00 AM — Apr 27 3:00 AM, Werne, Weather by CustomWeather, © 2015

Note: Actual official high and low records may vary slightly from our data, if they occured in-between our weather recording intervals... More about our weather records

Advertising

Werne weather history for previous 24 hours

 ConditionsComfort  
Time TempWeatherWind HumidityBarometerVisibility
3:00 AM
Mon, Apr 27
47 °FLight rain. Low clouds.3 mph95%29.67 "Hg3 mi
2:00 AM48 °FRain. Low clouds.2 mph96%29.68 "Hg2 mi
1:00 AM49 °FLight rain. Low clouds.3 mph94%29.69 "Hg3 mi
12:00 AM49 °FLight rain. Low clouds.3 mph95%29.69 "Hg3 mi
11:00 PM
Sun, Apr 26
50 °FFog.3 mph94%29.70 "Hg4 mi
10:00 PM51 °FLow clouds.2 mph94%29.70 "Hg4 mi
9:00 PM52 °FLight rain. Low clouds.2 mph94%29.70 "Hg4 mi
8:00 PM53 °FLight rain. Overcast.2 mph94%29.69 "Hg3 mi
7:00 PM54 °FLight rain. Overcast.3 mph92%29.69 "Hg3 mi
6:00 PM58 °FSprinkles. Overcast.5 mph75%29.68 "Hg16 mi
5:00 PM60 °FOvercast.3 mph70%29.69 "Hg12 mi
4:00 PM60 °FOvercast.6 mph69%29.69 "Hg16 mi
3:00 PM62 °FPartly sunny.6 mph59%29.70 "Hg16 mi
2:00 PM62 °FOvercast.8 mph57%29.71 "Hg16 mi
1:00 PM60 °FPartly sunny.7 mph64%29.72 "Hg16 mi
12:00 PM58 °FOvercast.3 mph72%29.72 "Hg9 mi
11:00 AM58 °FOvercast.5 mph78%29.72 "Hg9 mi
10:00 AM56 °FPartly sunny.5 mph87%29.72 "Hg6 mi
9:00 AM53 °FLow clouds.3 mph94%29.72 "Hg5 mi
8:00 AM52 °FLight rain. Low clouds.2 mph97%29.72 "Hg2 mi
7:00 AM52 °FLight rain. Overcast.2 mph97%29.72 "Hg2 mi
6:00 AM52 °FLight rain. Overcast.2 mph96%29.72 "Hg2 mi
5:00 AM53 °FLight rain. Overcast.2 mph93%29.73 "Hg3 mi
4:00 AM51 °FFog.2 mph95%29.74 "Hg3 mi
Weather by CustomWeather, © 2015

See weather overviewHow to use our weather pages